When you browse on this site, cookies collect data to enhance your experience and personalize the content and advertising you see.
Visit our Privacy Policy to learn more. By continuing to use the site, you agree to this use of cookies and data.
  • In United Kingdom
  • List of Countries
  • For 7 days
  • Water Temperature
  • Weather Map
  • Weather Widgets
  • user-avatar
    Login

    Hourly Weather Genç

    Today, 15 November, Friday

    Time Temperature Precipitation Wind Pressure Humidity
    00:00 +11°C° 0 mm 1 mps 677 mmHg 40%
    01:00 +11°C° 0 mm 1 mps 677 mmHg 41%
    02:00 +10°C° 0 mm 1 mps 677 mmHg 42%
    03:00 +10°C° 0 mm 1 mps 677 mmHg 41%
    04:00 +10°C° 0 mm 1 mps 677 mmHg 43%
    05:00 +9°C° 0 mm 1 mps 676 mmHg 44%
    06:00 +9°C° 0 mm 1 mps 676 mmHg 45%
    07:00 +11°C° 0 mm 1 mps 677 mmHg 41%
    08:00 +13°C° 0 mm 1 mps 678 mmHg 38%
    09:00 +15°C° 0 mm 1 mps 679 mmHg 35%
    10:00 +16°C° 0 mm 1 mps 679 mmHg 32%
    11:00 +18°C° 0 mm 1 mps 679 mmHg 29%
    12:00 +19°C° 0 mm 1 mps 679 mmHg 26%
    13:00 +20°C° 0 mm 1 mps 679 mmHg 25%
    14:00 +20°C° 0 mm 1 mps 678 mmHg 24%
    15:00 +20°C° 0 mm 1 mps 678 mmHg 23%
    16:00 +18°C° 0 mm 1 mps 677 mmHg 28%
    17:00 +15°C° 0 mm 1 mps 676 mmHg 32%
    18:00 +13°C° 0 mm 1 mps 676 mmHg 36%
    19:00 +12°C° 0 mm 1 mps 676 mmHg 36%
    20:00 +12°C° 0 mm 1 mps 676 mmHg 36%
    21:00 +11°C° 0 mm 1 mps 676 mmHg 36%
    22:00 +11°C° 0 mm 1 mps 675 mmHg 36%
    23:00 +11°C° 0 mm 1 mps 675 mmHg 36%

    Tomorrow, 16 November, Saturday

    Time Temperature Precipitation Wind Pressure Humidity
    00:00 +10°C° 0 mm 1 mps 675 mmHg 37%
    01:00 +10°C° 0 mm 1 mps 675 mmHg 37%
    02:00 +9°C° 0 mm 2 mps 675 mmHg 37%
    03:00 +8°C° 0 mm 2 mps 675 mmHg 37%
    04:00 +8°C° 0 mm 2 mps 675 mmHg 36%
    05:00 +8°C° 0 mm 2 mps 675 mmHg 36%
    06:00 +7°C° 0 mm 2 mps 674 mmHg 36%
    07:00 +9°C° 0 mm 2 mps 675 mmHg 33%
    08:00 +12°C° 0 mm 2 mps 676 mmHg 30%
    09:00 +14°C° 0 mm 2 mps 676 mmHg 27%
    10:00 +15°C° 0 mm 2 mps 676 mmHg 24%
    11:00 +17°C° 0 mm 2 mps 677 mmHg 20%
    12:00 +19°C° 0 mm 2 mps 677 mmHg 17%
    13:00 +19°C° 0 mm 2 mps 677 mmHg 16%
    14:00 +20°C° 0 mm 1 mps 676 mmHg 16%
    15:00 +21°C° 0 mm 1 mps 676 mmHg 16%
    16:00 +18°C° 0 mm 1 mps 676 mmHg 20%
    17:00 +15°C° 0 mm 1 mps 675 mmHg 25%
    18:00 +12°C° 0 mm 1 mps 675 mmHg 29%
    19:00 +12°C° 0 mm 1 mps 675 mmHg 30%
    20:00 +11°C° 0 mm 1 mps 675 mmHg 30%
    21:00 +11°C° 0 mm 1 mps 675 mmHg 30%
    22:00 +10°C° 0 mm 1 mps 675 mmHg 31%
    23:00 +10°C° 0 mm 1 mps 676 mmHg 31%

    Day after tomorrow, 17 November, Sunday

    Time Temperature Precipitation Wind Pressure Humidity
    00:00 +9°C° 0 mm 1 mps 676 mmHg 31%
    01:00 +9°C° 0 mm 1 mps 676 mmHg 32%
    02:00 +8°C° 0 mm 1 mps 676 mmHg 33%
    03:00 +8°C° 0 mm 1 mps 676 mmHg 34%
    04:00 +7°C° 0 mm 1 mps 676 mmHg 35%
    05:00 +7°C° 0 mm 1 mps 676 mmHg 35%
    06:00 +7°C° 0 mm 1 mps 676 mmHg 36%
    07:00 +8°C° 0 mm 1 mps 677 mmHg 34%
    08:00 +10°C° 0 mm 1 mps 677 mmHg 31%
    09:00 +11°C° 0 mm 1 mps 678 mmHg 28%
    10:00 +13°C° 0 mm 1 mps 678 mmHg 26%
    11:00 +14°C° 0 mm 1 mps 678 mmHg 24%
    12:00 +15°C° 0 mm 1 mps 678 mmHg 22%
    13:00 +15°C° 0 mm 2 mps 678 mmHg 22%
    14:00 +16°C° 0 mm 2 mps 677 mmHg 21%
    15:00 +16°C° 0 mm 2 mps 677 mmHg 21%
    16:00 +14°C° 0 mm 2 mps 677 mmHg 25%
    17:00 +12°C° 0 mm 1 mps 677 mmHg 30%
    18:00 +10°C° 0 mm 1 mps 676 mmHg 34%
    19:00 +10°C° 0 mm 1 mps 676 mmHg 34%
    20:00 +9°C° 0 mm 1 mps 676 mmHg 33%
    21:00 +8°C° 0 mm 1 mps 677 mmHg 33%
    22:00 +8°C° 0 mm 1 mps 677 mmHg 33%
    23:00 +8°C° 0 mm 1 mps 677 mmHg 33%

    18 November, Monday

    Time Temperature Precipitation Wind Pressure Humidity
    00:00 +7°C° 0 mm 1 mps 677 mmHg 33%
    01:00 +7°C° 0 mm 1 mps 677 mmHg 33%
    02:00 +6°C° 0 mm 1 mps 677 mmHg 34%
    03:00 +6°C° 0 mm 1 mps 677 mmHg 34%
    04:00 +6°C° 0 mm 1 mps 677 mmHg 34%
    05:00 +6°C° 0 mm 1 mps 677 mmHg 35%
    06:00 +4°C° 0 mm 2 mps 677 mmHg 35%
    07:00 +6°C° 0 mm 2 mps 677 mmHg 33%
    08:00 +7°C° 0 mm 2 mps 678 mmHg 30%
    09:00 +9°C° 0 mm 2 mps 678 mmHg 27%
    10:00 +11°C° 0 mm 1 mps 678 mmHg 24%
    11:00 +13°C° 0 mm 1 mps 678 mmHg 22%
    12:00 +14°C° 0 mm 1 mps 678 mmHg 19%
    13:00 +15°C° 0 mm 1 mps 678 mmHg 18%
    14:00 +15°C° 0 mm 1 mps 677 mmHg 18%
    15:00 +16°C° 0 mm 1 mps 677 mmHg 17%
    16:00 +13°C° 0 mm 1 mps 677 mmHg 22%
    17:00 +10°C° 0 mm 0 mps 676 mmHg 26%
    18:00 +8°C° 0 mm 0 mps 675 mmHg 31%
    19:00 +7°C° 0 mm 0 mps 675 mmHg 32%
    20:00 +7°C° 0 mm 0 mps 675 mmHg 33%
    21:00 +7°C° 0 mm 0 mps 675 mmHg 34%
    22:00 +7°C° 0 mm 1 mps 675 mmHg 35%
    23:00 +7°C° 0 mm 1 mps 675 mmHg 36%

    19 November, Tuesday

    Time Temperature Precipitation Wind Pressure Humidity
    00:00 +7°C° 0 mm 1 mps 675 mmHg 37%
    01:00 +7°C° 0 mm 1 mps 675 mmHg 37%
    02:00 +6°C° 0 mm 1 mps 675 mmHg 37%
    03:00 +6°C° 0 mm 1 mps 675 mmHg 37%
    04:00 +6°C° 0 mm 1 mps 675 mmHg 38%
    05:00 +6°C° 0 mm 1 mps 676 mmHg 38%
    06:00 +6°C° 0 mm 1 mps 676 mmHg 38%
    07:00 +7°C° 0 mm 1 mps 676 mmHg 35%
    08:00 +9°C° 0 mm 1 mps 677 mmHg 31%
    09:00 +11°C° 0 mm 1 mps 678 mmHg 28%
    10:00 +12°C° 0 mm 1 mps 678 mmHg 26%
    11:00 +14°C° 0 mm 1 mps 678 mmHg 23%
    12:00 +15°C° 0 mm 1 mps 678 mmHg 21%
    13:00 +16°C° 0 mm 1 mps 678 mmHg 20%
    14:00 +16°C° 0 mm 1 mps 677 mmHg 20%
    15:00 +16°C° 0 mm 1 mps 677 mmHg 20%
    16:00 +14°C° 0 mm 1 mps 676 mmHg 25%
    17:00 +12°C° 0 mm 1 mps 676 mmHg 30%
    18:00 +10°C° 0 mm 1 mps 675 mmHg 35%
    19:00 +9°C° 0 mm 1 mps 675 mmHg 37%
    20:00 +9°C° 0 mm 1 mps 675 mmHg 38%
    21:00 +7°C° 0 mm 0 mps 675 mmHg 40%
    22:00 +8°C° 0 mm 1 mps 675 mmHg 40%
    23:00 +7°C° 0 mm 1 mps 675 mmHg 41%

    20 November, Wednesday

    Time Temperature Precipitation Wind Pressure Humidity
    00:00 +7°C° 0 mm 1 mps 675 mmHg 41%
    01:00 +7°C° 0 mm 1 mps 675 mmHg 41%
    02:00 +6°C° 0 mm 1 mps 674 mmHg 41%
    03:00 +6°C° 0 mm 1 mps 674 mmHg 41%
    04:00 +6°C° 0 mm 1 mps 674 mmHg 42%
    05:00 +5°C° 0 mm 1 mps 674 mmHg 43%
    06:00 +5°C° 0 mm 1 mps 674 mmHg 44%
    07:00 +7°C° 0 mm 1 mps 675 mmHg 39%
    08:00 +9°C° 0 mm 1 mps 676 mmHg 34%
    09:00 +11°C° 0 mm 1 mps 676 mmHg 29%
    10:00 +12°C° 0 mm 1 mps 676 mmHg 27%
    11:00 +14°C° 0 mm 1 mps 676 mmHg 25%
    12:00 +15°C° 0 mm 1 mps 676 mmHg 23%
    13:00 +15°C° 0 mm 1 mps 676 mmHg 23%
    14:00 +15°C° 0 mm 1 mps 675 mmHg 23%
    15:00 +16°C° 0 mm 2 mps 675 mmHg 23%
    16:00 +13°C° 0 mm 1 mps 675 mmHg 28%
    17:00 +11°C° 0 mm 1 mps 674 mmHg 34%
    18:00 +9°C° 0 mm 1 mps 674 mmHg 40%
    19:00 +8°C° 0 mm 1 mps 674 mmHg 42%
    20:00 +7°C° 0 mm 0 mps 674 mmHg 43%
    21:00 +6°C° 0 mm 0 mps 674 mmHg 45%
    22:00 +6°C° 0 mm 0 mps 674 mmHg 46%
    23:00 +5°C° 0 mm 0 mps 673 mmHg 46%
    Show more